Flag for USA

Past Weather in Germantown, Maryland, USA — Yesterday and Last 2 Weeks

Now
70 °F

Fog.


Feels Like: 70 °F
Forecast: 90 / 72 °F
Wind: No wind

Location: Frederick Municipal Airport

Current Time: Jul 8, 2020 at 4:52:11 am

Latest Report: Jul 8, 2020 at 3:55 am


Visibility: 4 mi

Pressure: 29.99 "Hg

Humidity: 94%

Dew Point: 68 °F

Location of GermantownLocation

Past Weather in Germantown — Graph

°F

Germantown Temperature Yesterday

Maximum temperature yesterday: 88 °F (at 4:47 pm)
Minimum temperature yesterday: 72 °F (at 1:35 am)
Average temperature yesterday: 76 °F

High & Low Weather Summary for the Past Weeks

 TemperatureHumidityPressure
High95 °F (Jul 3, 2:47 pm)100% (Jun 23, 5:55 am)30.11 "Hg (Jun 23, 5:55 am)
Low61 °F (Jun 26, 5:15 am)32% (Jun 30, 4:47 pm)29.67 "Hg (Jun 23, 5:47 pm)
Average75 °F77%29.91 "Hg
* Reported Jun 23 3:15 am — Jul 8 3:35 am, Germantown. Weather by CustomWeather, © 2020

Note: Actual official high and low records may vary slightly from our data, if they occured in-between our weather recording intervals... More about our weather records

Germantown Weather History for the Previous 24 Hours

Scroll right to see more
 ConditionsComfort  
Time TempWeatherWind HumidityBarometerVisibility
3:35 am
Wed, Jul 8
70 °FFog.No wind100%29.99 "Hg5 mi
3:15 am70 °FFog.No wind100%30.00 "Hg5 mi
2:55 am70 °FFog.No wind100%30.00 "Hg4 mi
2:35 am72 °FFog.No wind94%30.00 "Hg5 mi
2:15 am72 °FPassing clouds.No wind94%30.01 "Hg7 mi
1:55 am72 °FPassing clouds.No wind94%30.01 "Hg7 mi
1:35 am72 °FClear.No wind94%30.01 "Hg10 mi
1:15 am72 °FClear.No wind94%30.01 "Hg10 mi
12:55 am72 °FClear.No wind94%30.02 "Hg7 mi
12:35 am72 °FClear.No wind94%30.02 "Hg10 mi
12:15 am72 °FClear.No wind94%30.02 "Hg10 mi
11:55 pm
Tue, Jul 7
73 °FClear.No wind89%30.02 "Hg10 mi
11:15 pm75 °FClear.No wind83%30.03 "Hg7 mi
10:55 pm73 °FClear.No wind89%30.03 "Hg10 mi
10:35 pm77 °FPassing clouds.No wind79%30.03 "Hg10 mi
9:55 pm77 °FPassing clouds.No wind79%30.03 "Hg10 mi
9:15 pm79 °FPassing clouds.3 mph74%30.01 "Hg10 mi
8:47 pm82 °FPartly cloudy.No wind70%30.00 "Hg10 mi
7:47 pm84 °FPartly sunny.No wind66%30.00 "Hg10 mi
6:47 pm88 °FScattered clouds.No wind59%30.00 "Hg10 mi
5:47 pm88 °FScattered clouds.No wind59%30.00 "Hg10 mi
4:47 pm88 °FBroken clouds.No wind59%30.01 "Hg10 mi
3:47 pm86 °FPartly sunny.No wind62%30.03 "Hg10 mi
2:47 pm84 °FOvercast.No wind66%30.06 "Hg10 mi
1:47 pm82 °FOvercast.No wind70%30.07 "Hg10 mi
12:47 pm79 °FOvercast.No wind79%30.08 "Hg7 mi
11:47 am79 °FOvercast.3 mph79%30.08 "Hg10 mi
10:47 am79 °FOvercast.No wind74%30.08 "Hg7 mi
9:47 am77 °FOvercast.No wind79%30.08 "Hg10 mi
8:47 am75 °FOvercast.No wind83%30.08 "Hg7 mi
8:17 am75 °FPartly sunny.No wind83%30.08 "Hg7 mi
7:47 am73 °FScattered clouds.No wind89%30.07 "Hg10 mi
6:47 am73 °FMore clouds than sun.No wind89%30.07 "Hg10 mi
6:15 am72 °FMore clouds than sun.No wind94%30.07 "Hg10 mi
5:55 am72 °FOvercast.No wind94%30.07 "Hg10 mi
5:35 am72 °FOvercast.3 mph94%30.07 "Hg10 mi
5:15 am72 °FOvercast.No wind94%30.06 "Hg10 mi
4:55 am72 °FOvercast.No wind94%30.06 "Hg10 mi
4:35 am72 °FLow clouds.No wind94%30.05 "Hg10 mi
4:15 am72 °FLow clouds.3 mph94%30.05 "Hg10 mi
Weather by CustomWeather, © 2020

See weather overview